Time,TemperatureF,DewpointF,PressureIn,WindDirection,WindDirectionDegrees,WindSpeedMPH,WindSpeedGustMPH,Humidity,HourlyPrecipIn,Conditions,Clouds,dailyrainin,SoftwareType,DateUTC
2013-06-11 00:12:00,57.5,58.0,30.01,East,97,0.0,-999.0,100,-99.99,,,0.02,weatherlink.com 1.10,2013-06-11 04:12:00,
2013-06-11 00:27:00,57.5,58.0,30.01,East,99,0.0,-999.0,100,-99.99,,,0.04,weatherlink.com 1.10,2013-06-11 04:27:00,
2013-06-11 00:42:00,57.3,57.0,29.99,East,99,0.0,-999.0,100,-99.99,,,0.05,weatherlink.com 1.10,2013-06-11 04:42:00,
2013-06-11 00:57:00,57.3,57.0,29.99,ESE,110,0.0,-999.0,100,-99.99,,,0.05,weatherlink.com 1.10,2013-06-11 04:57:00,
2013-06-11 01:13:00,57.3,57.0,29.97,South,182,0.0,-999.0,100,-99.99,,,0.05,weatherlink.com 1.10,2013-06-11 05:13:00,
2013-06-11 01:27:00,57.2,57.0,29.96,ESE,110,1.0,-999.0,100,-99.99,,,0.06,weatherlink.com 1.10,2013-06-11 05:27:00,
2013-06-11 01:43:00,57.0,57.0,29.95,ESE,102,0.0,-999.0,100,-99.99,,,0.06,weatherlink.com 1.10,2013-06-11 05:43:00,
2013-06-11 01:57:00,57.0,57.0,29.94,ESE,123,0.0,-999.0,100,-99.99,,,0.08,weatherlink.com 1.10,2013-06-11 05:57:00,
2013-06-11 02:12:00,57.0,57.0,29.94,ESE,110,0.0,-999.0,100,-99.99,,,0.13,weatherlink.com 1.10,2013-06-11 06:12:00,
2013-06-11 02:27:00,57.0,57.0,29.93,ESE,107,0.0,-999.0,100,-99.99,,,0.16,weatherlink.com 1.10,2013-06-11 06:27:00,
2013-06-11 02:42:00,57.0,57.0,29.92,ESE,110,0.0,-999.0,100,-99.99,,,0.19,weatherlink.com 1.10,2013-06-11 06:42:00,
2013-06-11 02:57:00,56.9,57.0,29.91,ESE,110,0.0,-999.0,100,-99.99,,,0.21,weatherlink.com 1.10,2013-06-11 06:57:00,
2013-06-11 03:12:00,56.7,57.0,29.90,ESE,114,0.0,-999.0,100,-99.99,,,0.22,weatherlink.com 1.10,2013-06-11 07:12:00,
2013-06-11 03:27:00,56.6,57.0,29.90,ESE,106,0.0,-999.0,100,-99.99,,,0.23,weatherlink.com 1.10,2013-06-11 07:27:00,
2013-06-11 03:42:00,56.5,57.0,29.89,SE,137,0.0,-999.0,100,-99.99,,,0.24,weatherlink.com 1.10,2013-06-11 07:42:00,
2013-06-11 03:57:00,56.5,57.0,29.88,SSE,148,0.0,-999.0,100,-99.99,,,0.25,weatherlink.com 1.10,2013-06-11 07:57:00,
2013-06-11 04:12:00,56.5,57.0,29.88,East,90,0.0,-999.0,100,-99.99,,,0.27,weatherlink.com 1.10,2013-06-11 08:12:00,
2013-06-11 04:27:00,56.3,56.0,29.87,SE,126,0.0,-999.0,100,-99.99,,,0.31,weatherlink.com 1.10,2013-06-11 08:27:00,
2013-06-11 04:42:00,56.3,56.0,29.85,ESE,116,0.0,-999.0,100,-99.99,,,0.32,weatherlink.com 1.10,2013-06-11 08:42:00,
2013-06-11 04:57:00,56.2,56.0,29.85,SE,126,5.0,-999.0,100,-99.99,,,0.33,weatherlink.com 1.10,2013-06-11 08:57:00,
2013-06-11 05:12:00,55.9,56.0,29.84,SE,141,2.0,-999.0,100,-99.99,,,0.35,weatherlink.com 1.10,2013-06-11 09:12:00,
2013-06-11 05:27:00,55.7,56.0,29.84,SE,124,0.0,-999.0,100,-99.99,,,0.39,weatherlink.com 1.10,2013-06-11 09:27:00,
2013-06-11 05:42:00,55.7,56.0,29.84,NNE,27,0.0,-999.0,100,-99.99,,,0.40,weatherlink.com 1.10,2013-06-11 09:42:00,
2013-06-11 05:57:00,55.6,56.0,29.83,NE,34,2.0,-999.0,100,-99.99,,,0.40,weatherlink.com 1.10,2013-06-11 09:57:00,
2013-06-11 06:12:00,55.6,56.0,29.83,SE,127,0.0,-999.0,100,-99.99,,,0.41,weatherlink.com 1.10,2013-06-11 10:12:00,
2013-06-11 06:27:00,55.3,55.0,29.82,SE,124,0.0,-999.0,100,-99.99,,,0.42,weatherlink.com 1.10,2013-06-11 10:27:00,
2013-06-11 06:42:00,55.3,55.0,29.81,SE,130,2.0,-999.0,100,-99.99,,,0.43,weatherlink.com 1.10,2013-06-11 10:42:00,
2013-06-11 06:57:00,55.1,55.0,29.80,SE,144,0.0,-999.0,100,-99.99,,,0.45,weatherlink.com 1.10,2013-06-11 10:57:00,
2013-06-11 07:12:00,55.0,55.0,29.79,NE,41,0.0,-999.0,100,-99.99,,,0.45,weatherlink.com 1.10,2013-06-11 11:12:00,
2013-06-11 07:27:00,54.8,55.0,29.79,NE,40,0.0,-999.0,100,-99.99,,,0.46,weatherlink.com 1.10,2013-06-11 11:27:00,
2013-06-11 07:42:00,54.8,55.0,29.78,NE,35,0.0,-999.0,100,-99.99,,,0.47,weatherlink.com 1.10,2013-06-11 11:42:00,
2013-06-11 07:57:00,54.8,55.0,29.77,NE,56,2.0,-999.0,100,-99.99,,,0.48,weatherlink.com 1.10,2013-06-11 11:57:00,
2013-06-11 08:12:00,54.8,55.0,29.76,ENE,66,1.0,-999.0,100,-99.99,,,0.48,weatherlink.com 1.10,2013-06-11 12:12:00,
2013-06-11 08:27:00,54.8,55.0,29.76,ENE,58,1.0,-999.0,100,-99.99,,,0.48,weatherlink.com 1.10,2013-06-11 12:27:00,
2013-06-11 08:42:00,55.0,55.0,29.75,ESE,106,0.0,-999.0,100,-99.99,,,0.49,weatherlink.com 1.10,2013-06-11 12:42:00,
2013-06-11 08:57:00,55.3,55.0,29.75,WSW,239,2.0,-999.0,100,-99.99,,,0.49,weatherlink.com 1.10,2013-06-11 12:57:00,
2013-06-11 09:12:00,55.4,55.0,29.75,North,0,2.0,-999.0,100,-99.99,,,0.51,weatherlink.com 1.10,2013-06-11 13:12:00,
2013-06-11 09:27:00,55.9,56.0,29.75,North,0,0.0,-999.0,100,-99.99,,,0.52,weatherlink.com 1.10,2013-06-11 13:27:00,
2013-06-11 09:42:00,56.5,57.0,29.73,NNW,337,0.0,-999.0,100,-99.99,,,0.53,weatherlink.com 1.10,2013-06-11 13:42:00,
2013-06-11 09:57:00,56.5,57.0,29.73,ENE,78,0.0,-999.0,100,-99.99,,,0.53,weatherlink.com 1.10,2013-06-11 13:57:00,
2013-06-11 10:12:00,56.7,57.0,29.73,East,86,1.0,-999.0,100,-99.99,,,0.53,weatherlink.com 1.10,2013-06-11 14:12:00,
2013-06-11 10:27:00,57.0,57.0,29.72,NE,41,2.0,-999.0,100,-99.99,,,0.53,weatherlink.com 1.10,2013-06-11 14:27:00,
2013-06-11 10:42:00,57.3,57.0,29.72,NE,45,0.0,-999.0,100,-99.99,,,0.53,weatherlink.com 1.10,2013-06-11 14:42:00,
2013-06-11 10:57:00,57.6,58.0,29.72,NE,38,0.0,-999.0,100,-99.99,,,0.53,weatherlink.com 1.10,2013-06-11 14:57:00,
2013-06-11 11:12:00,57.6,58.0,29.71,North,7,1.0,-999.0,100,-99.99,,,0.53,weatherlink.com 1.10,2013-06-11 15:12:00,
2013-06-11 11:27:00,57.5,58.0,29.71,NNE,23,1.0,-999.0,100,-99.99,,,0.53,weatherlink.com 1.10,2013-06-11 15:27:00,
2013-06-11 11:42:00,57.6,58.0,29.71,NE,37,3.0,-999.0,100,-99.99,,,0.53,weatherlink.com 1.10,2013-06-11 15:42:00,
2013-06-11 11:57:00,57.6,58.0,29.70,ENE,73,0.0,-999.0,100,-99.99,,,0.53,weatherlink.com 1.10,2013-06-11 15:57:00,
2013-06-11 12:12:00,58.0,58.0,29.71,NE,44,1.0,-999.0,100,-99.99,,,0.53,weatherlink.com 1.10,2013-06-11 16:12:00,
2013-06-11 12:27:00,58.3,58.0,29.71,ENE,73,0.0,-999.0,100,-99.99,,,0.53,weatherlink.com 1.10,2013-06-11 16:27:00,
2013-06-11 12:42:00,58.4,58.0,29.70,NE,38,0.0,-999.0,100,-99.99,,,0.53,weatherlink.com 1.10,2013-06-11 16:42:00,
2013-06-11 12:57:00,59.2,59.0,29.70,ESE,109,0.0,-999.0,100,-99.99,,,0.53,weatherlink.com 1.10,2013-06-11 16:57:00,
2013-06-11 13:12:00,59.2,59.0,29.70,NE,45,0.0,-999.0,100,-99.99,,,0.53,weatherlink.com 1.10,2013-06-11 17:12:00,
2013-06-11 13:27:00,59.5,60.0,29.70,NNE,14,1.0,-999.0,100,-99.99,,,0.53,weatherlink.com 1.10,2013-06-11 17:27:00,
2013-06-11 13:42:00,59.9,60.0,29.70,ENE,75,0.0,-999.0,100,-99.99,,,0.53,weatherlink.com 1.10,2013-06-11 17:42:00,
2013-06-11 13:57:00,60.5,61.0,29.69,SE,126,1.0,-999.0,100,-99.99,,,0.53,weatherlink.com 1.10,2013-06-11 17:57:00,
2013-06-11 14:12:00,60.4,60.0,29.68,NE,54,0.0,-999.0,100,-99.99,,,0.53,weatherlink.com 1.10,2013-06-11 18:12:00,
2013-06-11 14:27:00,61.0,61.0,29.67,ENE,68,0.0,-999.0,100,-99.99,,,0.53,weatherlink.com 1.10,2013-06-11 18:27:00,
2013-06-11 14:42:00,61.8,62.0,29.67,ESE,117,0.0,-999.0,100,-99.99,,,0.53,weatherlink.com 1.10,2013-06-11 18:42:00,
2013-06-11 14:58:00,61.3,60.0,29.66,NE,49,1.0,-999.0,96,-99.99,,,0.53,weatherlink.com 1.10,2013-06-11 18:58:00,
2013-06-11 15:13:00,61.3,60.0,29.66,NE,55,0.0,-999.0,96,-99.99,,,0.53,weatherlink.com 1.10,2013-06-11 19:13:00,
2013-06-11 15:28:00,61.6,60.0,29.66,NE,42,0.0,-999.0,93,-99.99,,,0.53,weatherlink.com 1.10,2013-06-11 19:28:00,
2013-06-11 15:42:00,62.0,60.0,29.65,NE,47,0.0,-999.0,93,-99.99,,,0.53,weatherlink.com 1.10,2013-06-11 19:42:00,
2013-06-11 15:58:00,61.5,60.0,29.65,NE,47,0.0,-999.0,94,-99.99,,,0.53,weatherlink.com 1.10,2013-06-11 19:58:00,
2013-06-11 16:12:00,61.5,60.0,29.64,NE,49,0.0,-999.0,94,-99.99,,,0.53,weatherlink.com 1.10,2013-06-11 20:12:00,
2013-06-11 16:27:00,62.1,60.0,29.64,ENE,78,1.0,-999.0,94,-99.99,,,0.53,weatherlink.com 1.10,2013-06-11 20:27:00,
2013-06-11 16:42:00,61.5,60.0,29.63,ENE,64,0.0,-999.0,94,-99.99,,,0.53,weatherlink.com 1.10,2013-06-11 20:42:00,
2013-06-11 16:57:00,61.6,61.0,29.62,ENE,65,0.0,-999.0,96,-99.99,,,0.53,weatherlink.com 1.10,2013-06-11 20:57:00,
2013-06-11 17:13:00,61.6,60.0,29.61,ENE,66,0.0,-999.0,94,-99.99,,,0.53,weatherlink.com 1.10,2013-06-11 21:13:00,
2013-06-11 17:27:00,61.3,60.0,29.61,ESE,103,0.0,-999.0,95,-99.99,,,0.53,weatherlink.com 1.10,2013-06-11 21:27:00,
2013-06-11 17:42:00,61.0,61.0,29.61,ESE,103,0.0,-999.0,98,-99.99,,,0.56,weatherlink.com 1.10,2013-06-11 21:42:00,
2013-06-11 17:57:00,60.2,60.0,29.59,East,80,0.0,-999.0,100,-99.99,,,0.61,weatherlink.com 1.10,2013-06-11 21:57:00,
2013-06-11 18:12:00,59.6,60.0,29.59,East,79,0.0,-999.0,100,-99.99,,,0.61,weatherlink.com 1.10,2013-06-11 22:12:00,
2013-06-11 18:27:00,58.9,59.0,29.58,East,79,0.0,-999.0,100,-99.99,,,0.62,weatherlink.com 1.10,2013-06-11 22:27:00,
2013-06-11 18:42:00,58.7,59.0,29.59,East,79,0.0,-999.0,100,-99.99,,,0.64,weatherlink.com 1.10,2013-06-11 22:42:00,
2013-06-11 18:57:00,58.6,59.0,29.59,East,79,0.0,-999.0,100,-99.99,,,0.69,weatherlink.com 1.10,2013-06-11 22:57:00,
2013-06-11 19:12:00,58.3,58.0,29.58,East,79,0.0,-999.0,100,-99.99,,,0.72,weatherlink.com 1.10,2013-06-11 23:12:00,
2013-06-11 19:27:00,58.1,58.0,29.58,East,79,0.0,-999.0,100,-99.99,,,0.74,weatherlink.com 1.10,2013-06-11 23:27:00,
2013-06-11 19:42:00,58.0,58.0,29.59,East,79,0.0,-999.0,100,-99.99,,,0.75,weatherlink.com 1.10,2013-06-11 23:42:00,
2013-06-11 19:57:00,58.0,58.0,29.59,East,79,0.0,-999.0,100,-99.99,,,0.75,weatherlink.com 1.10,2013-06-11 23:57:00,
2013-06-11 20:12:00,57.8,58.0,29.59,East,79,0.0,-999.0,100,-99.99,,,0.75,weatherlink.com 1.10,2013-06-12 00:12:00,
2013-06-11 20:27:00,57.8,58.0,29.59,East,79,0.0,-999.0,100,-99.99,,,0.75,weatherlink.com 1.10,2013-06-12 00:27:00,
2013-06-11 20:42:00,57.6,58.0,29.59,East,79,0.0,-999.0,100,-99.99,,,0.75,weatherlink.com 1.10,2013-06-12 00:42:00,
2013-06-11 20:57:00,57.6,58.0,29.58,East,79,0.0,-999.0,100,-99.99,,,0.75,weatherlink.com 1.10,2013-06-12 00:57:00,
2013-06-11 21:12:00,57.5,58.0,29.59,East,79,0.0,-999.0,100,-99.99,,,0.75,weatherlink.com 1.10,2013-06-12 01:12:00,
2013-06-11 21:27:00,57.5,58.0,29.58,East,79,0.0,-999.0,100,-99.99,,,0.75,weatherlink.com 1.10,2013-06-12 01:27:00,
2013-06-11 21:43:00,57.5,58.0,29.59,East,79,0.0,-999.0,100,-99.99,,,0.75,weatherlink.com 1.10,2013-06-12 01:43:00,
2013-06-11 21:58:00,57.3,57.0,29.59,East,79,0.0,-999.0,100,-99.99,,,0.75,weatherlink.com 1.10,2013-06-12 01:58:00,
2013-06-11 22:12:00,57.3,57.0,29.59,East,79,0.0,-999.0,100,-99.99,,,0.76,weatherlink.com 1.10,2013-06-12 02:12:00,
2013-06-11 22:27:00,57.2,57.0,29.59,East,79,0.0,-999.0,100,-99.99,,,0.76,weatherlink.com 1.10,2013-06-12 02:27:00,
2013-06-11 22:42:00,57.2,57.0,29.59,East,79,0.0,-999.0,100,-99.99,,,0.76,weatherlink.com 1.10,2013-06-12 02:42:00,
2013-06-11 22:58:00,57.0,57.0,29.58,East,79,0.0,-999.0,100,-99.99,,,0.76,weatherlink.com 1.10,2013-06-12 02:58:00,
2013-06-11 23:13:00,57.0,57.0,29.58,East,79,0.0,-999.0,100,-99.99,,,0.77,weatherlink.com 1.10,2013-06-12 03:13:00,
2013-06-11 23:28:00,56.7,57.0,29.58,ENE,68,0.0,-999.0,100,-99.99,,,0.77,weatherlink.com 1.10,2013-06-12 03:28:00,
2013-06-11 23:42:00,56.6,57.0,29.58,ENE,68,0.0,-999.0,100,-99.99,,,0.78,weatherlink.com 1.10,2013-06-12 03:42:00,
2013-06-11 23:58:00,56.3,56.0,29.58,ENE,68,0.0,-999.0,100,-99.99,,,0.78,weatherlink.com 1.10,2013-06-12 03:58:00,